TURKSAT 5B

Last updated on Tue Sep 16 2025 00:02:50 GMT+0000 (Coordinated Universal Time)

1 50212U 21126A 25258.59289598 .00000129 00000+0 00000+0 0 9999 2 50212 0.0729 334.5479 0002094 323.3073 312.4032 1.00272195 13546
UTC large
Height (km)
Speed (km/s)
/
Latitude / Longitude
Inclination (degrees)
Orbital Period (minutes)
Azimuth
Elevation
Range (km)
Doppler Factor

Next 0 passes for location: London (51.5072 / 0.1276)

Sorry there are no passes over London.